Home > Weather > Haql > Past weeks

Flag for Saudi Arabia Past Weather in Haql, Saudi Arabia — Yesterday and Last 2 Weeks

Now
97 °F

Clear.


Feels Like: 98 °F
Forecast: 78 / 98 °F
Wind: 14 mph from Northwest

Location: Eilat

Current Time: Aug 25, 2016 at 9:51:06 PM

Latest Report: Aug 25, 2016 at 8:50 PM


Visibility: 10 mi

Pressure: 29.71 "Hg

Humidity: 32%

Dew Point: 63 °F

Location of HaqlLocation

Past Weather in Haql — Graph

°F

Haql Temperature Yesterday

Maximum temperature yesterday: 102 °F (at 2:50 PM)
Minimum temperature yesterday: 82 °F (at 5:50 AM)
Average temperature yesterday: 94 °F

High & Low Weather Summary for the Past Weeks

 TemperatureHumidityPressure
High106 °F (Aug 11, 4:50 PM)58% (Aug 15, 5:50 AM)29.83 "Hg (Aug 15, 5:50 AM)
Low79 °F (Aug 19, 6:50 AM)14% (Aug 14, 3:50 PM)29.62 "Hg (Aug 17, 3:50 PM)
Average95 °F33%29.71 "Hg
* Reported Aug 10 7:50 PM — Aug 25 7:50 PM, Haql, Weather by CustomWeather, © 2016

Note: Actual official high and low records may vary slightly from our data, if they occured in-between our weather recording intervals... More about our weather records

Advertising

Haql Weather History for the Previous 24 Hours

Scroll right to see more
 ConditionsComfort  
Time TempWeatherWind HumidityBarometerVisibility
7:50 PM
Thu, Aug 25
99 °FSunny.15 mph29%29.65 "Hg10 mi
6:50 PM100 °FSunny.17 mph27%29.65 "Hg10 mi
5:50 PM102 °FSunny.17 mph26%29.62 "Hg10 mi
4:50 PM102 °FSunny.20 mph26%29.62 "Hg10 mi
3:50 PM102 °FSunny.18 mph26%29.65 "Hg10 mi
2:50 PM100 °FSunny.18 mph29%29.65 "Hg10 mi
1:50 PM99 °FSunny.17 mph33%29.68 "Hg10 mi
12:50 PM97 °FSunny.15 mph34%29.71 "Hg10 mi
11:50 AM91 °FSunny.14 mph44%29.71 "Hg10 mi
10:50 AM90 °FSunny.12 mph49%29.74 "Hg10 mi
9:50 AM88 °FSunny.14 mph49%29.77 "Hg10 mi
8:50 AM86 °FSunny.8 mph52%29.77 "Hg10 mi
7:50 AM84 °FSunny.12 mph55%29.74 "Hg10 mi
6:50 AM82 °FPassing clouds.10 mph58%29.74 "HgN/A
5:50 AM82 °FClear.9 mph58%29.74 "Hg10 mi
9:50 PM
Wed, Aug 24
93 °FClear.12 mph39%29.68 "Hg10 mi
Weather by CustomWeather, © 2016

See weather overviewHow to use our weather pages